Year,Month,Day,Hour,Minute,Value (Times are PST for temperature in C)
2018,09,28,00,00,13.40
2018,09,28,00,01,13.40
2018,09,28,00,02,13.40
2018,09,28,00,03,13.40
2018,09,28,00,04,13.40
2018,09,28,00,05,13.50
2018,09,28,00,06,13.50
2018,09,28,00,07,13.50
2018,09,28,00,08,13.50
2018,09,28,00,09,13.40
2018,09,28,00,10,13.40
2018,09,28,00,11,13.40
2018,09,28,00,12,13.40
2018,09,28,00,13,13.40
2018,09,28,00,14,13.40
2018,09,28,00,15,13.40
2018,09,28,00,16,13.40
2018,09,28,00,17,13.50
2018,09,28,00,18,13.40
2018,09,28,00,19,13.40
2018,09,28,00,20,13.40
2018,09,28,00,21,13.40
2018,09,28,00,22,13.40
2018,09,28,00,23,13.40
2018,09,28,00,24,13.40
2018,09,28,00,25,13.40
2018,09,28,00,26,13.40
2018,09,28,00,27,13.40
2018,09,28,00,28,13.40
2018,09,28,00,29,13.40
2018,09,28,00,30,13.30
2018,09,28,00,31,13.30
2018,09,28,00,32,13.30
2018,09,28,00,33,13.30
2018,09,28,00,34,13.30
2018,09,28,00,35,13.30
2018,09,28,00,36,13.30
2018,09,28,00,37,13.20
2018,09,28,00,38,13.20
2018,09,28,00,39,13.20
2018,09,28,00,40,13.20
2018,09,28,00,41,13.20
2018,09,28,00,42,13.10
2018,09,28,00,43,13.20
2018,09,28,00,44,13.20
2018,09,28,00,45,13.20
2018,09,28,00,46,13.20
2018,09,28,00,47,13.20
2018,09,28,00,48,13.20
2018,09,28,00,49,13.20
2018,09,28,00,50,13.20
2018,09,28,00,51,13.10
2018,09,28,00,52,13.10
2018,09,28,00,53,13.10
2018,09,28,00,54,13.10
2018,09,28,00,55,13.10
2018,09,28,00,56,13.10
2018,09,28,00,57,13.10
2018,09,28,00,58,13.10
2018,09,28,00,59,13.00
2018,09,28,01,00,13.00
2018,09,28,01,01,12.90
2018,09,28,01,02,12.90
2018,09,28,01,03,12.90
2018,09,28,01,04,12.90
2018,09,28,01,05,12.90
2018,09,28,01,06,12.90
2018,09,28,01,07,12.90
2018,09,28,01,08,12.80
2018,09,28,01,09,12.80
2018,09,28,01,10,12.80
2018,09,28,01,11,12.80
2018,09,28,01,12,12.80
2018,09,28,01,13,12.80
2018,09,28,01,14,12.70
2018,09,28,01,15,12.70
2018,09,28,01,16,12.70
2018,09,28,01,17,12.70
2018,09,28,01,18,12.60
2018,09,28,01,19,12.60
2018,09,28,01,20,12.60
2018,09,28,01,21,12.60
2018,09,28,01,22,12.60
2018,09,28,01,23,12.50
2018,09,28,01,24,12.50
2018,09,28,01,25,12.50
2018,09,28,01,26,12.40
2018,09,28,01,27,12.40
2018,09,28,01,28,12.40
2018,09,28,01,29,12.40
2018,09,28,01,30,12.40
2018,09,28,01,31,12.40
2018,09,28,01,32,12.40
2018,09,28,01,33,12.40
2018,09,28,01,34,12.40
2018,09,28,01,35,12.40
2018,09,28,01,36,12.30
2018,09,28,01,37,12.30
2018,09,28,01,38,12.30
2018,09,28,01,39,12.30
2018,09,28,01,40,12.30
2018,09,28,01,41,12.30
2018,09,28,01,42,12.30
2018,09,28,01,43,12.30
2018,09,28,01,44,12.30
2018,09,28,01,45,12.30
2018,09,28,01,46,12.30
2018,09,28,01,47,12.20
2018,09,28,01,48,12.20
2018,09,28,01,49,12.20
2018,09,28,01,50,12.20
2018,09,28,01,51,12.20
2018,09,28,01,52,12.20
2018,09,28,01,53,12.20
2018,09,28,01,54,12.20
2018,09,28,01,55,12.10
2018,09,28,01,56,12.10
2018,09,28,01,57,12.10
2018,09,28,01,58,12.10
2018,09,28,01,59,12.10
2018,09,28,02,00,12.10
2018,09,28,02,01,12.10
2018,09,28,02,02,12.10
2018,09,28,02,03,12.10
2018,09,28,02,04,12.10
2018,09,28,02,05,12.10
2018,09,28,02,06,12.10
2018,09,28,02,07,12.10
2018,09,28,02,08,12.10
2018,09,28,02,09,12.10
2018,09,28,02,10,12.10
2018,09,28,02,11,12.00
2018,09,28,02,12,12.00
2018,09,28,02,13,12.00
2018,09,28,02,14,12.00
2018,09,28,02,15,12.00
2018,09,28,02,16,12.00
2018,09,28,02,17,12.00
2018,09,28,02,18,12.00
2018,09,28,02,19,12.00
2018,09,28,02,20,12.00
2018,09,28,02,21,11.90
2018,09,28,02,22,11.90
2018,09,28,02,23,11.90
2018,09,28,02,24,12.00
2018,09,28,02,25,12.00
2018,09,28,02,26,12.00
2018,09,28,02,27,12.00
2018,09,28,02,28,12.00
2018,09,28,02,29,12.10
2018,09,28,02,30,12.10
2018,09,28,02,31,12.10
2018,09,28,02,32,12.10
2018,09,28,02,33,12.10
2018,09,28,02,34,12.10
2018,09,28,02,35,12.10
2018,09,28,02,36,12.20
2018,09,28,02,37,12.20
2018,09,28,02,38,12.20
2018,09,28,02,39,12.30
2018,09,28,02,40,12.30
2018,09,28,02,41,12.30
2018,09,28,02,42,12.30
2018,09,28,02,43,12.30
2018,09,28,02,44,12.30
2018,09,28,02,45,12.30
2018,09,28,02,46,12.30
2018,09,28,02,47,12.30
2018,09,28,02,48,12.30
2018,09,28,02,49,12.30
2018,09,28,02,50,12.30
2018,09,28,02,51,12.30
2018,09,28,02,52,12.20
2018,09,28,02,53,12.20
2018,09,28,02,54,12.20
2018,09,28,02,55,12.20
2018,09,28,02,56,12.20
2018,09,28,02,57,12.20
2018,09,28,02,58,12.30
2018,09,28,02,59,12.30
2018,09,28,03,00,12.30
2018,09,28,03,01,12.30
2018,09,28,03,02,12.40
2018,09,28,03,03,12.40
2018,09,28,03,04,12.40
2018,09,28,03,05,12.40
2018,09,28,03,06,12.40
2018,09,28,03,07,12.40
2018,09,28,03,08,12.40
2018,09,28,03,09,12.40
2018,09,28,03,10,12.40
2018,09,28,03,11,12.30
2018,09,28,03,12,12.30
2018,09,28,03,13,12.30
2018,09,28,03,14,12.30
2018,09,28,03,15,12.20
2018,09,28,03,16,12.20
2018,09,28,03,17,12.20
2018,09,28,03,18,12.10
2018,09,28,03,19,12.10
2018,09,28,03,20,12.10
2018,09,28,03,21,12.00
2018,09,28,03,22,12.00
2018,09,28,03,23,11.90
2018,09,28,03,24,11.90
2018,09,28,03,25,11.90
2018,09,28,03,26,11.90
2018,09,28,03,27,11.90
2018,09,28,03,28,11.90
2018,09,28,03,29,11.90
2018,09,28,03,30,12.00
2018,09,28,03,31,11.90
2018,09,28,03,32,11.90
2018,09,28,03,33,11.90
2018,09,28,03,34,11.90
2018,09,28,03,35,11.90
2018,09,28,03,36,11.90
2018,09,28,03,37,11.90
2018,09,28,03,38,12.00
2018,09,28,03,39,12.00
2018,09,28,03,40,12.00
2018,09,28,03,41,12.00
2018,09,28,03,42,12.00
2018,09,28,03,43,12.00
2018,09,28,03,44,12.00
2018,09,28,03,45,12.10
2018,09,28,03,46,12.00
2018,09,28,03,47,12.00
2018,09,28,03,48,12.00
2018,09,28,03,49,12.00
2018,09,28,03,50,12.00
2018,09,28,03,51,12.00
2018,09,28,03,52,12.00
2018,09,28,03,53,11.90
2018,09,28,03,54,11.90
2018,09,28,03,55,11.90
2018,09,28,03,56,11.90
2018,09,28,03,57,11.90
2018,09,28,03,58,11.80
2018,09,28,03,59,11.80
2018,09,28,04,00,11.80
2018,09,28,04,01,11.80
2018,09,28,04,02,11.80
2018,09,28,04,03,11.80
2018,09,28,04,04,11.80
2018,09,28,04,05,11.80
2018,09,28,04,06,11.80
2018,09,28,04,07,11.80
2018,09,28,04,08,11.80
2018,09,28,04,09,11.70
2018,09,28,04,10,11.70
2018,09,28,04,11,11.70
2018,09,28,04,12,11.70
2018,09,28,04,13,11.70
2018,09,28,04,14,11.60
2018,09,28,04,15,11.60
2018,09,28,04,16,11.60
2018,09,28,04,17,11.60
2018,09,28,04,18,11.50
2018,09,28,04,19,11.50
2018,09,28,04,20,11.50
2018,09,28,04,21,11.40
2018,09,28,04,22,11.50
2018,09,28,04,23,11.50
2018,09,28,04,24,11.50
2018,09,28,04,25,11.50
2018,09,28,04,26,11.50
2018,09,28,04,27,11.50
2018,09,28,04,28,11.50
2018,09,28,04,29,11.50
2018,09,28,04,30,11.50
2018,09,28,04,31,11.50
2018,09,28,04,32,11.50
2018,09,28,04,33,11.50
2018,09,28,04,34,11.40
2018,09,28,04,35,11.40
2018,09,28,04,36,11.40
2018,09,28,04,37,11.40
2018,09,28,04,38,11.30
2018,09,28,04,39,11.30
2018,09,28,04,40,11.30
2018,09,28,04,41,11.20
2018,09,28,04,42,11.20
2018,09,28,04,43,11.20
2018,09,28,04,44,11.20
2018,09,28,04,45,11.20
2018,09,28,04,46,11.10
2018,09,28,04,47,11.10
2018,09,28,04,48,11.10
2018,09,28,04,49,11.10
2018,09,28,04,50,11.10
2018,09,28,04,51,11.10
2018,09,28,04,52,11.10
2018,09,28,04,53,11.10
2018,09,28,04,54,11.10
2018,09,28,04,55,11.10
2018,09,28,04,56,11.10
2018,09,28,04,57,11.10
2018,09,28,04,58,11.20
2018,09,28,04,59,11.20
2018,09,28,05,00,11.20
2018,09,28,05,01,11.20
2018,09,28,05,02,11.20
2018,09,28,05,03,11.20
2018,09,28,05,04,11.10
2018,09,28,05,05,11.10
2018,09,28,05,06,11.10
2018,09,28,05,07,11.10
2018,09,28,05,08,11.10
2018,09,28,05,09,11.10
2018,09,28,05,10,11.20
2018,09,28,05,11,11.20
2018,09,28,05,12,11.20
2018,09,28,05,13,11.10
2018,09,28,05,14,11.10
2018,09,28,05,15,11.10
2018,09,28,05,16,11.10
2018,09,28,05,17,11.10
2018,09,28,05,18,11.00
2018,09,28,05,19,11.00
2018,09,28,05,20,10.90
2018,09,28,05,21,10.90
2018,09,28,05,22,10.90
2018,09,28,05,23,10.90
2018,09,28,05,24,10.80
2018,09,28,05,25,10.80
2018,09,28,05,26,10.80
2018,09,28,05,27,10.80
2018,09,28,05,28,10.80
2018,09,28,05,29,10.70
2018,09,28,05,30,10.70
2018,09,28,05,31,10.70
2018,09,28,05,32,10.70
2018,09,28,05,33,10.70
2018,09,28,05,34,10.70
2018,09,28,05,35,10.70
2018,09,28,05,36,10.70
2018,09,28,05,37,10.60
2018,09,28,05,38,10.60
2018,09,28,05,39,10.70
2018,09,28,05,40,10.70
2018,09,28,05,41,10.70
2018,09,28,05,42,10.60
2018,09,28,05,43,10.60
2018,09,28,05,44,10.60
2018,09,28,05,45,10.60
2018,09,28,05,46,10.60
2018,09,28,05,47,10.60
2018,09,28,05,48,10.60
2018,09,28,05,49,10.60
2018,09,28,05,50,10.60
2018,09,28,05,51,10.60
2018,09,28,05,52,10.60
2018,09,28,05,53,10.60
2018,09,28,05,54,10.60
2018,09,28,05,55,10.60
2018,09,28,05,56,10.60
2018,09,28,05,57,10.60
2018,09,28,05,58,10.60
2018,09,28,05,59,10.60
2018,09,28,06,00,10.60
2018,09,28,06,01,10.60
2018,09,28,06,02,10.50
2018,09,28,06,03,10.50
2018,09,28,06,04,10.50
2018,09,28,06,05,10.40
2018,09,28,06,06,10.40
2018,09,28,06,07,10.30
2018,09,28,06,08,10.30
2018,09,28,06,09,10.30
2018,09,28,06,10,10.30
2018,09,28,06,11,10.20
2018,09,28,06,12,10.20
2018,09,28,06,13,10.20
2018,09,28,06,14,10.20
2018,09,28,06,15,10.20
2018,09,28,06,16,10.20
2018,09,28,06,17,10.20
2018,09,28,06,18,10.20
2018,09,28,06,19,10.20
2018,09,28,06,20,10.10
2018,09,28,06,21,10.20
2018,09,28,06,22,10.20
2018,09,28,06,23,10.20
2018,09,28,06,24,10.20
2018,09,28,06,25,10.20
2018,09,28,06,26,10.20
2018,09,28,06,27,10.20
2018,09,28,06,28,10.20
2018,09,28,06,29,10.20
2018,09,28,06,30,10.20
2018,09,28,06,31,10.20
2018,09,28,06,32,10.20
2018,09,28,06,33,10.20
2018,09,28,06,34,10.20
2018,09,28,06,35,10.20
2018,09,28,06,36,10.20
2018,09,28,06,37,10.20
2018,09,28,06,38,10.20
2018,09,28,06,39,10.20
2018,09,28,06,40,10.20
2018,09,28,06,41,10.20
2018,09,28,06,42,10.30
2018,09,28,06,43,10.30
2018,09,28,06,44,10.30
2018,09,28,06,45,10.30
2018,09,28,06,46,10.30
2018,09,28,06,47,10.30
2018,09,28,06,48,10.30
2018,09,28,06,49,10.30
2018,09,28,06,50,10.30
2018,09,28,06,51,10.30
2018,09,28,06,52,10.30
2018,09,28,06,53,10.20
2018,09,28,06,54,10.20
2018,09,28,06,55,10.20
2018,09,28,06,56,10.20
2018,09,28,06,57,10.10
2018,09,28,06,58,10.10
2018,09,28,06,59,10.10
2018,09,28,07,00,10.10
2018,09,28,07,01,10.10
2018,09,28,07,02,10.00
2018,09,28,07,03,10.00
2018,09,28,07,04,10.00
2018,09,28,07,05,10.00
2018,09,28,07,06,10.10
2018,09,28,07,07,10.00
2018,09,28,07,08,10.10
2018,09,28,07,09,10.10
2018,09,28,07,10,10.10
2018,09,28,07,11,10.10
2018,09,28,07,12,10.10
2018,09,28,07,13,10.10
2018,09,28,07,14,10.10
2018,09,28,07,15,10.10
2018,09,28,07,16,10.10
2018,09,28,07,17,10.10
2018,09,28,07,18,10.10
2018,09,28,07,19,10.10
2018,09,28,07,20,10.10
2018,09,28,07,21,10.20
2018,09,28,07,22,10.20
2018,09,28,07,23,10.20
2018,09,28,07,24,10.20
2018,09,28,07,25,10.20
2018,09,28,07,26,10.20
2018,09,28,07,27,10.20
2018,09,28,07,28,10.20
2018,09,28,07,29,10.10
2018,09,28,07,30,10.10
2018,09,28,07,31,10.10
2018,09,28,07,32,10.10
2018,09,28,07,33,10.00
2018,09,28,07,34,10.00
2018,09,28,07,35,10.00
2018,09,28,07,36,10.00
2018,09,28,07,37,10.10
2018,09,28,07,38,10.10
2018,09,28,07,39,10.10
2018,09,28,07,40,10.10
2018,09,28,07,41,10.10
2018,09,28,07,42,10.10
2018,09,28,07,43,10.20
2018,09,28,07,44,10.20
2018,09,28,07,45,10.20
2018,09,28,07,46,10.20
2018,09,28,07,47,10.20
2018,09,28,07,48,10.20
2018,09,28,07,49,10.20
2018,09,28,07,50,10.20
2018,09,28,07,51,10.20
2018,09,28,07,52,10.20
2018,09,28,07,53,10.20
2018,09,28,07,54,10.20
2018,09,28,07,55,10.20
2018,09,28,07,56,10.30
2018,09,28,07,57,10.30
2018,09,28,07,58,10.30
2018,09,28,07,59,10.30
2018,09,28,08,00,10.40
2018,09,28,08,01,10.40
2018,09,28,08,02,10.50
2018,09,28,08,03,10.50
2018,09,28,08,04,10.60
2018,09,28,08,05,10.60
2018,09,28,08,06,10.60
2018,09,28,08,07,10.70
2018,09,28,08,08,10.70
2018,09,28,08,09,10.80
2018,09,28,08,10,10.80
2018,09,28,08,11,10.80
2018,09,28,08,12,10.80
2018,09,28,08,13,10.90
2018,09,28,08,14,10.90
2018,09,28,08,15,10.90
2018,09,28,08,16,11.00
2018,09,28,08,17,11.00
2018,09,28,08,18,11.10
2018,09,28,08,19,11.20
2018,09,28,08,20,11.20
2018,09,28,08,21,11.20
2018,09,28,08,22,11.20
2018,09,28,08,23,11.30
2018,09,28,08,24,11.30
2018,09,28,08,25,11.30
2018,09,28,08,26,11.40
2018,09,28,08,27,11.40
2018,09,28,08,28,11.50
2018,09,28,08,29,11.60
2018,09,28,08,30,11.60
2018,09,28,08,31,11.70
2018,09,28,08,32,11.80
2018,09,28,08,33,11.80
2018,09,28,08,34,11.90
2018,09,28,08,35,11.90
2018,09,28,08,36,12.00
2018,09,28,08,37,12.10
2018,09,28,08,38,12.10
2018,09,28,08,39,12.20
2018,09,28,08,40,12.20
2018,09,28,08,41,12.30
2018,09,28,08,42,12.40
2018,09,28,08,43,12.40
2018,09,28,08,44,12.50
2018,09,28,08,45,12.60
2018,09,28,08,46,12.60
2018,09,28,08,47,12.70
2018,09,28,08,48,12.70
2018,09,28,08,49,12.80
2018,09,28,08,50,12.90
2018,09,28,08,51,12.90
2018,09,28,08,52,13.00
2018,09,28,08,53,13.10
2018,09,28,08,54,13.10
2018,09,28,08,55,13.20
2018,09,28,08,56,13.30
2018,09,28,08,57,13.30
2018,09,28,08,58,13.40
2018,09,28,08,59,13.50
2018,09,28,09,00,13.60
2018,09,28,09,01,13.60
2018,09,28,09,02,13.70
2018,09,28,09,03,13.80
2018,09,28,09,04,13.90
2018,09,28,09,05,14.00
2018,09,28,09,06,14.10
2018,09,28,09,07,14.20
2018,09,28,09,08,14.30
2018,09,28,09,09,14.30
2018,09,28,09,10,14.40
2018,09,28,09,11,14.50
2018,09,28,09,12,14.60
2018,09,28,09,13,14.70
2018,09,28,09,14,14.70
2018,09,28,09,15,14.80
2018,09,28,09,16,14.80
2018,09,28,09,17,14.90
2018,09,28,09,18,15.00
2018,09,28,09,19,15.00
2018,09,28,09,20,15.10
2018,09,28,09,21,15.20
2018,09,28,09,22,15.30
2018,09,28,09,23,15.30
2018,09,28,09,24,15.40
2018,09,28,09,25,15.50
2018,09,28,09,26,15.60
2018,09,28,09,27,15.70
2018,09,28,09,28,15.80
2018,09,28,09,29,15.90
2018,09,28,09,30,16.00
2018,09,28,09,31,16.10
2018,09,28,09,32,16.20
2018,09,28,09,33,16.30
2018,09,28,09,34,16.40
2018,09,28,09,35,16.40
2018,09,28,09,36,16.40
2018,09,28,09,37,16.50
2018,09,28,09,38,16.60
2018,09,28,09,39,16.70
2018,09,28,09,40,16.80
2018,09,28,09,41,16.80
2018,09,28,09,42,16.90
2018,09,28,09,43,17.00
2018,09,28,09,44,17.20
2018,09,28,09,45,17.30
2018,09,28,09,46,17.40
2018,09,28,09,47,17.60
2018,09,28,09,48,17.70
2018,09,28,09,49,17.80
2018,09,28,09,50,17.90
2018,09,28,09,51,17.90
2018,09,28,09,52,18.00
2018,09,28,09,53,18.10
2018,09,28,09,54,18.20
2018,09,28,09,55,18.30
2018,09,28,09,56,18.40
2018,09,28,09,57,18.60
2018,09,28,09,58,18.70
2018,09,28,09,59,18.70
2018,09,28,10,00,18.90
2018,09,28,10,01,19.00
2018,09,28,10,02,19.00
2018,09,28,10,03,19.10
2018,09,28,10,04,19.20
2018,09,28,10,05,19.30
2018,09,28,10,06,19.40
2018,09,28,10,07,19.50
2018,09,28,10,08,19.70
2018,09,28,10,09,19.80
2018,09,28,10,10,20.00
2018,09,28,10,11,20.10
2018,09,28,10,12,20.20
2018,09,28,10,13,20.20
2018,09,28,10,14,20.20
2018,09,28,10,15,20.30
2018,09,28,10,16,20.30
2018,09,28,10,17,20.30
2018,09,28,10,18,20.30
2018,09,28,10,19,20.20
2018,09,28,10,20,20.30
2018,09,28,10,21,20.30
2018,09,28,10,22,20.30
2018,09,28,10,23,20.30
2018,09,28,10,24,20.40
2018,09,28,10,25,20.40
2018,09,28,10,26,20.40
2018,09,28,10,27,20.40
2018,09,28,10,28,20.50
2018,09,28,10,29,20.50
2018,09,28,10,30,20.50
2018,09,28,10,31,20.50
2018,09,28,10,32,20.50
2018,09,28,10,33,20.50
2018,09,28,10,34,20.50
2018,09,28,10,35,20.50
2018,09,28,10,36,20.60
2018,09,28,10,37,20.60
2018,09,28,10,38,20.60
2018,09,28,10,39,20.70
2018,09,28,10,40,20.80
2018,09,28,10,41,20.80
2018,09,28,10,42,20.90
2018,09,28,10,43,21.00
2018,09,28,10,44,21.10
2018,09,28,10,45,21.10
2018,09,28,10,46,21.20
2018,09,28,10,47,21.20
2018,09,28,10,48,21.20
2018,09,28,10,49,21.20
2018,09,28,10,50,21.20
2018,09,28,10,51,21.20
2018,09,28,10,52,21.20
2018,09,28,10,53,21.20
2018,09,28,10,54,21.30
2018,09,28,10,55,21.30
2018,09,28,10,56,21.40
2018,09,28,10,57,21.50
2018,09,28,10,58,21.60
2018,09,28,10,59,21.70
2018,09,28,11,00,21.80
2018,09,28,11,01,21.90
2018,09,28,11,02,21.90
2018,09,28,11,03,21.90
2018,09,28,11,04,22.00
2018,09,28,11,05,22.10
2018,09,28,11,06,22.20
2018,09,28,11,07,22.20
2018,09,28,11,08,22.20
2018,09,28,11,09,22.20
2018,09,28,11,10,22.20
2018,09,28,11,11,22.20
2018,09,28,11,12,22.20
2018,09,28,11,13,22.20
2018,09,28,11,14,22.30
2018,09,28,11,15,22.30
2018,09,28,11,16,22.40
2018,09,28,11,17,22.40
2018,09,28,11,18,22.40
2018,09,28,11,19,22.40
2018,09,28,11,20,22.40
2018,09,28,11,21,22.40
2018,09,28,11,22,22.40
2018,09,28,11,23,22.30
2018,09,28,11,24,22.20
2018,09,28,11,25,22.20
2018,09,28,11,26,22.10
2018,09,28,11,27,22.10
2018,09,28,11,28,22.10
2018,09,28,11,29,22.10
2018,09,28,11,30,22.10
2018,09,28,11,31,22.10
2018,09,28,11,32,22.10
2018,09,28,11,33,22.10
2018,09,28,11,34,22.20
2018,09,28,11,35,22.20
2018,09,28,11,36,22.20
2018,09,28,11,37,22.30
2018,09,28,11,38,22.30
2018,09,28,11,39,22.30
2018,09,28,11,40,22.30
2018,09,28,11,41,22.30
2018,09,28,11,42,22.40
2018,09,28,11,43,22.40
2018,09,28,11,44,22.50
2018,09,28,11,45,22.50
2018,09,28,11,46,22.60
2018,09,28,11,47,22.70
2018,09,28,11,48,22.70
2018,09,28,11,49,22.70
2018,09,28,11,50,22.70
2018,09,28,11,51,22.80
2018,09,28,11,52,22.80
2018,09,28,11,53,22.80
2018,09,28,11,54,22.80
2018,09,28,11,55,22.90
2018,09,28,11,56,22.90
2018,09,28,11,57,22.90
2018,09,28,11,58,22.90
2018,09,28,11,59,22.80
2018,09,28,12,00,22.70
2018,09,28,12,01,22.60
2018,09,28,12,02,22.50
2018,09,28,12,03,22.40
2018,09,28,12,04,22.30
2018,09,28,12,05,22.30
2018,09,28,12,06,22.30
2018,09,28,12,07,22.30
2018,09,28,12,08,22.30
2018,09,28,12,09,22.30
2018,09,28,12,10,22.30
2018,09,28,12,11,22.30
2018,09,28,12,12,22.40
2018,09,28,12,13,22.50
2018,09,28,12,14,22.60
2018,09,28,12,15,22.70
2018,09,28,12,16,22.70
2018,09,28,12,17,22.70
2018,09,28,12,18,22.60
2018,09,28,12,19,22.60
2018,09,28,12,20,22.50
2018,09,28,12,21,22.50
2018,09,28,12,22,22.30
2018,09,28,12,23,22.20
2018,09,28,12,24,22.10
2018,09,28,12,25,22.10
2018,09,28,12,26,22.10
2018,09,28,12,27,22.00
2018,09,28,12,28,22.10
2018,09,28,12,29,22.10
2018,09,28,12,30,22.30
2018,09,28,12,31,22.30
2018,09,28,12,32,22.40
2018,09,28,12,33,22.40
2018,09,28,12,34,22.30
2018,09,28,12,35,22.20
2018,09,28,12,36,22.20
2018,09,28,12,37,22.20
2018,09,28,12,38,22.10
2018,09,28,12,39,22.10
2018,09,28,12,40,22.10
2018,09,28,12,41,22.10
2018,09,28,12,42,22.20
2018,09,28,12,43,22.30
2018,09,28,12,44,22.30
2018,09,28,12,45,22.40
2018,09,28,12,46,22.50
2018,09,28,12,47,22.60
2018,09,28,12,48,22.70
2018,09,28,12,49,22.80
2018,09,28,12,50,22.80
2018,09,28,12,51,22.90
2018,09,28,12,52,22.90
2018,09,28,12,53,22.90
2018,09,28,12,54,22.90
2018,09,28,12,55,22.90
2018,09,28,12,56,22.80
2018,09,28,12,57,22.80
2018,09,28,12,58,22.80
2018,09,28,12,59,22.80
2018,09,28,13,00,22.80
2018,09,28,13,01,22.90
2018,09,28,13,02,22.90
2018,09,28,13,03,22.90
2018,09,28,13,04,22.90
2018,09,28,13,05,22.90
2018,09,28,13,06,23.00
2018,09,28,13,07,23.00
2018,09,28,13,08,23.00
2018,09,28,13,09,23.10
2018,09,28,13,10,23.20
2018,09,28,13,11,23.30
2018,09,28,13,12,23.30
2018,09,28,13,13,23.40
2018,09,28,13,14,23.40
2018,09,28,13,15,23.40
2018,09,28,13,16,23.40
2018,09,28,13,17,23.30
2018,09,28,13,18,23.20
2018,09,28,13,19,23.10
2018,09,28,13,20,23.10
2018,09,28,13,21,23.10
2018,09,28,13,22,23.10
2018,09,28,13,23,23.20
2018,09,28,13,24,23.20
2018,09,28,13,25,23.30
2018,09,28,13,26,23.30
2018,09,28,13,27,23.40
2018,09,28,13,28,23.40
2018,09,28,13,29,23.40
2018,09,28,13,30,23.40
2018,09,28,13,31,23.40
2018,09,28,13,32,23.40
2018,09,28,13,33,23.40
2018,09,28,13,34,23.40
2018,09,28,13,35,23.50
2018,09,28,13,36,23.60
2018,09,28,13,37,23.60
2018,09,28,13,38,23.60
2018,09,28,13,39,23.60
2018,09,28,13,40,23.60
2018,09,28,13,41,23.50
2018,09,28,13,42,23.50
2018,09,28,13,43,23.50
2018,09,28,13,44,23.60
2018,09,28,13,45,23.60
2018,09,28,13,46,23.60
2018,09,28,13,47,23.70
2018,09,28,13,48,23.70
2018,09,28,13,49,23.70
2018,09,28,13,50,23.70
2018,09,28,13,51,23.70
2018,09,28,13,52,23.70
2018,09,28,13,53,23.80
2018,09,28,13,54,23.70
2018,09,28,13,55,23.70
2018,09,28,13,56,23.80
2018,09,28,13,57,23.80
2018,09,28,13,58,23.70
2018,09,28,13,59,23.70
2018,09,28,14,00,23.60
2018,09,28,14,01,23.70
2018,09,28,14,02,23.70
2018,09,28,14,03,23.80
2018,09,28,14,04,23.90
2018,09,28,14,05,23.90
2018,09,28,14,06,23.90
2018,09,28,14,07,23.80
2018,09,28,14,08,23.90
2018,09,28,14,09,23.80
2018,09,28,14,10,23.60
2018,09,28,14,11,23.60
2018,09,28,14,12,23.70
2018,09,28,14,13,23.70
2018,09,28,14,14,23.70
2018,09,28,14,15,23.70
2018,09,28,14,16,23.70
2018,09,28,14,17,23.80
2018,09,28,14,18,23.80
2018,09,28,14,19,23.90
2018,09,28,14,20,23.90
2018,09,28,14,21,24.00
2018,09,28,14,22,24.00
2018,09,28,14,23,24.00
2018,09,28,14,24,24.00
2018,09,28,14,25,24.00
2018,09,28,14,26,24.10
2018,09,28,14,27,24.10
2018,09,28,14,28,24.10
2018,09,28,14,29,24.10
2018,09,28,14,30,24.10
2018,09,28,14,31,24.10
2018,09,28,14,32,24.10
2018,09,28,14,33,24.10
2018,09,28,14,34,24.10
2018,09,28,14,35,24.20
2018,09,28,14,36,24.20
2018,09,28,14,37,24.30
2018,09,28,14,38,24.30
2018,09,28,14,39,24.20
2018,09,28,14,40,24.20
2018,09,28,14,41,24.10
2018,09,28,14,42,24.10
2018,09,28,14,43,24.20
2018,09,28,14,44,24.30
2018,09,28,14,45,24.30
2018,09,28,14,46,24.30
2018,09,28,14,47,24.30
2018,09,28,14,48,24.40
2018,09,28,14,49,24.40
2018,09,28,14,50,24.30
2018,09,28,14,51,24.30
2018,09,28,14,52,24.30
2018,09,28,14,53,24.30
2018,09,28,14,54,24.30
2018,09,28,14,55,24.30
2018,09,28,14,56,24.20
2018,09,28,14,57,24.20
2018,09,28,14,58,24.10
2018,09,28,14,59,24.10
2018,09,28,15,00,24.20
2018,09,28,15,01,24.20
2018,09,28,15,02,24.20
2018,09,28,15,03,24.20
2018,09,28,15,04,24.30
2018,09,28,15,05,24.30
2018,09,28,15,06,24.40
2018,09,28,15,07,24.40
2018,09,28,15,08,24.50
2018,09,28,15,09,24.60
2018,09,28,15,10,24.60
2018,09,28,15,11,24.70
2018,09,28,15,12,24.60
2018,09,28,15,13,24.60
2018,09,28,15,14,24.60
2018,09,28,15,15,24.60
2018,09,28,15,16,24.60
2018,09,28,15,17,24.60
2018,09,28,15,18,24.60
2018,09,28,15,19,24.60
2018,09,28,15,20,24.50
2018,09,28,15,21,24.50
2018,09,28,15,22,24.40
2018,09,28,15,23,24.40
2018,09,28,15,24,24.40
2018,09,28,15,25,24.50
2018,09,28,15,26,24.50
2018,09,28,15,27,24.50
2018,09,28,15,28,24.50
2018,09,28,15,29,24.50
2018,09,28,15,30,24.50
2018,09,28,15,31,24.60
2018,09,28,15,32,24.50
2018,09,28,15,33,24.50
2018,09,28,15,34,24.50
2018,09,28,15,35,24.60
2018,09,28,15,36,24.60
2018,09,28,15,37,24.70
2018,09,28,15,38,24.70
2018,09,28,15,39,24.70
2018,09,28,15,40,24.70
2018,09,28,15,41,24.70
2018,09,28,15,42,24.70
2018,09,28,15,43,24.70
2018,09,28,15,44,24.70
2018,09,28,15,45,24.70
2018,09,28,15,46,24.70
2018,09,28,15,47,24.80
2018,09,28,15,48,24.90
2018,09,28,15,49,24.90
2018,09,28,15,50,24.90
2018,09,28,15,51,24.90
2018,09,28,15,52,24.90
2018,09,28,15,53,25.00
2018,09,28,15,54,25.00
2018,09,28,15,55,24.90
2018,09,28,15,56,24.90
2018,09,28,15,57,24.90
2018,09,28,15,58,24.80
2018,09,28,15,59,24.80
2018,09,28,16,00,24.80
2018,09,28,16,01,24.70
2018,09,28,16,02,24.70
2018,09,28,16,03,24.60
2018,09,28,16,04,24.50
2018,09,28,16,05,24.30
2018,09,28,16,06,24.20
2018,09,28,16,07,24.20
2018,09,28,16,08,24.20
2018,09,28,16,09,24.20
2018,09,28,16,10,24.20
2018,09,28,16,11,24.20
2018,09,28,16,12,24.30
2018,09,28,16,13,24.30
2018,09,28,16,14,24.30
2018,09,28,16,15,24.40
2018,09,28,16,16,24.40
2018,09,28,16,17,24.40
2018,09,28,16,18,24.40
2018,09,28,16,19,24.40
2018,09,28,16,20,24.30
2018,09,28,16,21,24.30
2018,09,28,16,22,24.30
2018,09,28,16,23,24.30
2018,09,28,16,24,24.30
2018,09,28,16,25,24.30
2018,09,28,16,26,24.30
2018,09,28,16,27,24.40
2018,09,28,16,28,24.40
2018,09,28,16,29,24.50
2018,09,28,16,30,24.60
2018,09,28,16,31,24.60
2018,09,28,16,32,24.60
2018,09,28,16,33,24.60
2018,09,28,16,34,24.70
2018,09,28,16,35,24.70
2018,09,28,16,36,24.70
2018,09,28,16,37,24.60
2018,09,28,16,38,24.60
2018,09,28,16,39,24.60
2018,09,28,16,40,24.50
2018,09,28,16,41,24.50
2018,09,28,16,42,24.50
2018,09,28,16,43,24.60
2018,09,28,16,44,24.60
2018,09,28,16,45,24.50
2018,09,28,16,46,24.50
2018,09,28,16,47,24.40
2018,09,28,16,48,24.40
2018,09,28,16,49,24.40
2018,09,28,16,50,24.30
2018,09,28,16,51,24.30
2018,09,28,16,52,24.30
2018,09,28,16,53,24.30
2018,09,28,16,54,24.30
2018,09,28,16,55,24.30
2018,09,28,16,56,24.30
2018,09,28,16,57,24.20
2018,09,28,16,58,24.10
2018,09,28,16,59,24.00
2018,09,28,17,00,24.00
2018,09,28,17,01,23.90
2018,09,28,17,02,23.90
2018,09,28,17,03,23.90
2018,09,28,17,04,23.80
2018,09,28,17,05,23.90
2018,09,28,17,06,23.80
2018,09,28,17,07,23.80
2018,09,28,17,08,23.80
2018,09,28,17,09,23.80
2018,09,28,17,10,23.80
2018,09,28,17,11,23.70
2018,09,28,17,12,23.70
2018,09,28,17,13,23.70
2018,09,28,17,14,23.60
2018,09,28,17,15,23.60
2018,09,28,17,16,23.60
2018,09,28,17,17,23.50
2018,09,28,17,18,23.50
2018,09,28,17,19,23.50